{"data":{"norad_id":66494,"intl_designator":"2025-263K","name":"STARLINK-35689","alt_names":[],"object_type":"PAYLOAD","status":"ACTIVE","operator":null,"country":"US","launch_date":"2025-11-15","launch_site_code":"AFETR","launch_vehicle":null,"mission":null,"orbit_class":"UNKNOWN","rcs_meters":null,"size_class":null,"mass_kg":null,"dimensions":null,"purposes":["comms"],"wikipedia_slug":null,"has_3d_model":false,"image_url":null,"decayed_at":null,"tle_current":{"epoch":"2026-09-20T11:16:56.413632Z","epoch_age_seconds":93086,"freshness":"FRESH","line1":"1 66494U 25263K   26263.47009738  .00006298  00000+0  23813-3 0  9998","line2":"2 66494  42.9982 331.0655 0000285 252.7466 107.3354 15.27588599 48683","mean_motion":15.27588599,"eccentricity":2.85e-5,"inclination_deg":42.9982,"raan_deg":331.0655,"arg_perigee_deg":252.7466,"mean_anomaly_deg":107.3354,"bstar":0.00023813,"rev_number":4868,"period_min":94.266218073548,"perigee_km":482.82780459105,"apogee_km":483.21889073087,"semimajor_km":6861.160347661,"source":"CELESTRAK","updated_at":"2026-09-21T09:00:35.920868Z"}}}